Location: Newark
(34.1333°N, 7.9667°W)
Time: 10:30:27
(UTC+00:00)

A-11 Canister half - All Passes

Search period start: 13 June 2021 00:00
Search period end: 23 June 2021 00:00
Orbit: 1527 x 1681 km, 47.3° (Epoch: 12 June)

Date Brightness Start Highest point End Pass type
(mag) Time Alt. Az. Time Alt. Az. Time Alt. Az.
13 Jun - 02:03:14 10° W 02:12:16 51° NNW 02:21:19 10° NE visible
13 Jun - 04:10:43 10° WNW 04:19:07 36° N 04:27:38 10° ENE visible
13 Jun - 06:16:40 10° NW 06:25:52 56° NNE 06:35:15 10° ESE daylight
13 Jun - 08:21:49 10° WNW 08:30:57 56° SW 08:40:22 10° SSE daylight
13 Jun - 10:31:50 10° WSW 10:34:38 11° WSW 10:37:27 10° SW daylight
13 Jun - 21:37:49 10° SSE 21:41:42 13° ESE 21:45:33 10° E visible
13 Jun - 23:36:10 10° SSW 23:45:23 61° SE 23:54:29 10° ENE visible
14 Jun - 01:41:29 10° W 01:50:34 53° NNW 01:59:38 10° NE visible
14 Jun - 03:48:58 10° WNW 03:57:22 36° N 04:05:52 10° ENE visible
14 Jun - 05:55:01 10° NW 06:04:09 54° NNE 06:13:28 10° ESE daylight
14 Jun - 08:00:09 10° WNW 08:09:19 59° SW 08:18:46 10° SSE daylight
14 Jun - 10:09:22 10° W 10:13:03 13° WSW 10:16:46 10° SW daylight
14 Jun - 21:17:03 10° SE 21:20:07 12° ESE 21:23:10 10° ESE visible
14 Jun - 23:14:35 10° SSW 23:23:45 58° SE 23:32:48 10° ENE visible
15 Jun - 01:19:44 10° WSW 01:28:52 55° NNW 01:37:58 10° NE visible
15 Jun - 03:27:13 10° WNW 03:35:37 36° N 03:44:06 10° ENE visible
15 Jun - 05:33:22 10° NW 05:42:27 53° NNE 05:51:42 10° E daylight
15 Jun - 07:38:28 10° WNW 07:47:42 62° SW 07:57:10 10° SE daylight
15 Jun - 09:47:06 10° W 09:51:27 14° WSW 09:55:53 10° SSW daylight
15 Jun - 20:56:42 10° SE 20:58:33 11° ESE 21:00:24 10° ESE visible
15 Jun - 22:53:01 10° SSW 23:02:08 55° SE 23:11:07 10° ENE visible
16 Jun - 00:57:59 10° WSW 01:07:10 56° NNW 01:16:18 10° NE visible
16 Jun - 03:05:28 10° WNW 03:13:52 36° N 03:22:20 10° ENE visible
16 Jun - 05:11:42 10° NW 05:20:44 51° NNE 05:29:55 10° E daylight
16 Jun - 07:16:48 10° WNW 07:26:03 65° SW 07:35:34 10° SE daylight
16 Jun - 09:24:57 10° W 09:29:52 15° WSW 09:34:52 10° SSW daylight
16 Jun - 22:31:27 10° SSW 22:40:31 52° SE 22:49:25 10° ENE visible
17 Jun - 00:36:15 10° WSW 00:45:28 59° NNW 00:54:39 10° NE visible
17 Jun - 02:43:42 10° WNW 02:52:07 36° N 03:00:34 10° ENE visible
17 Jun - 04:50:03 10° NW 04:59:02 49° NNE 05:08:09 10° E visible
17 Jun - 06:55:08 10° WNW 07:04:25 69° SW 07:13:56 10° SE daylight
17 Jun - 09:02:53 10° W 09:08:16 17° SW 09:13:45 10° SSW daylight
17 Jun - 22:09:54 10° SSW 22:18:54 49° SE 22:27:44 10° ENE visible
18 Jun - 00:14:29 10° WSW 00:23:47 61° NNW 00:32:59 10° NE visible
18 Jun - 02:21:56 10° WNW 02:30:22 36° N 02:38:50 10° ENE visible
18 Jun - 04:28:23 10° NW 04:37:19 48° NNE 04:46:22 10° E visible
18 Jun - 06:33:28 10° WNW 06:42:46 72° SW 06:52:19 10° SE daylight
18 Jun - 08:40:54 10° W 08:46:41 18° SW 08:52:35 10° SSW daylight
18 Jun - 21:48:22 10° SSW 21:57:18 46° SE 22:06:02 10° ENE visible
18 Jun - 23:52:45 10° WSW 00:02:06 63° NNW 00:11:20 10° NE visible
19 Jun - 02:00:10 10° WNW 02:08:37 37° N 02:17:06 10° ENE visible
19 Jun - 04:06:42 10° NW 04:15:36 47° NNE 04:24:35 10° E visible
19 Jun - 06:11:49 10° NW 06:21:08 76° SW 06:30:41 10° SE daylight
19 Jun - 08:18:56 10° W 08:25:05 19° SW 08:31:22 10° SSW daylight
19 Jun - 21:26:51 10° SSW 21:35:41 44° SE 21:44:19 10° ENE visible
19 Jun - 23:31:02 10° WSW 23:40:25 65° NNW 23:49:41 10° NE visible
20 Jun - 01:38:23 10° WNW 01:46:53 37° N 01:55:21 10° ENE visible
20 Jun - 03:45:01 10° NW 03:53:53 45° NNE 04:02:49 10° E visible
20 Jun - 05:50:09 10° NW 05:59:29 79° SW 06:09:02 10° SE daylight
20 Jun - 07:57:01 10° W 08:03:30 21° SW 08:10:06 10° S daylight
20 Jun - 21:05:19 10° SSW 21:14:04 41° SE 21:22:37 10° ENE visible
20 Jun - 23:09:17 10° WSW 23:18:44 68° NNW 23:28:02 10° NE visible
21 Jun - 01:16:36 10° WNW 01:25:08 37° N 01:33:37 10° ENE visible
21 Jun - 03:23:21 10° NW 03:32:10 44° NNE 03:41:02 10° E visible
21 Jun - 05:28:30 10° NW 05:37:51 83° SW 05:47:23 10° SE daylight
21 Jun - 07:35:09 10° W 07:41:54 23° SW 07:48:48 10° S daylight
21 Jun - 20:43:49 10° SSW 20:52:27 39° SE 21:00:53 10° ENE visible
21 Jun - 22:47:34 10° WSW 22:57:03 71° NNW 23:06:23 10° NE visible
22 Jun - 00:54:49 10° WNW 01:03:23 38° N 01:11:54 10° ENE visible
22 Jun - 03:01:40 10° NW 03:10:26 43° NNE 03:19:14 10° E visible
22 Jun - 05:06:51 10° NW 05:16:12 86° SW 05:25:44 10° SE daylight
22 Jun - 07:13:18 10° WNW 07:20:19 24° SW 07:27:28 10° S daylight
22 Jun - 20:22:20 10° SSW 20:30:51 37° SE 20:39:09 10° ENE visible
22 Jun - 22:25:51 10° WSW 22:35:23 74° NNW 22:44:44 10° NE visible
